| time (UTC) | temp C | wind direction | speed KPH | gust KPH | rain 1hr cm | rain 24hr cm | rain mn cm | humidity % | barometer mb |
| 20260903160352 | 30 | 23 | 3.2 | 3.2 | 0.00 | 0.00 | 0.00 | 69 | 1014.7 |
| 20260903155851 | 31 | 29 | 3.2 | 3.2 | 0.00 | 0.00 | 0.00 | 67 | 1014.8 |
| 20260903155347 | 31 | 72 | 3.2 | 3.2 | 0.00 | 0.00 | 0.00 | 66 | 1014.9 |
| 20260903154843 | 30 | 1 | 1.6 | 1.6 | 0.00 | 0.00 | 0.00 | 67 | 1014.9 |
| 20260903154339 | 29 | 41 | 4.8 | 4.8 | 0.00 | 0.00 | 0.00 | 69 | 1015.0 |
| 20260903153839 | 29 | 21 | 3.2 | 4.8 | 0.00 | 0.00 | 0.00 | 69 | 1015.0 |
| 20260903153335 | 29 | 68 | 3.2 | 3.2 | 0.00 | 0.00 | 0.00 | 71 | 1014.8 |
| 20260903152831 | 29 | 32 | 3.2 | 6.4 | 0.00 | 0.00 | 0.00 | 69 | 1015.0 |
| 20260903152327 | 30 | 353 | 1.6 | 1.6 | 0.00 | 0.00 | 0.00 | 70 | 1014.8 |
| 20260903151821 | 28 | 37 | 3.2 | 4.8 | 0.00 | 0.00 | 0.00 | 71 | 1015.0 |
| 20260903151318 | 28 | 37 | 3.2 | 3.2 | 0.00 | 0.00 | 0.00 | 71 | 1015.0 |
| 20260903150817 | 28 | 355 | 1.6 | 3.2 | 0.00 | 0.00 | 0.00 | 74 | 1014.9 |
| 20260903150317 | 28 | 355 | 1.6 | 1.6 | 0.00 | 0.00 | 0.00 | 74 | 1014.9 |
| 20260903145812 | 28 | 68 | 3.2 | 4.8 | 0.00 | 0.00 | 0.00 | 74 | 1015.0 |
| 20260903145307 | 28 | 34 | 6.4 | 6.4 | 0.00 | 0.00 | 0.00 | 75 | 1015.1 |
| 20260903144806 | 27 | 335 | 1.6 | 3.2 | 0.00 | 0.00 | 0.00 | 76 | 1015.0 |
| 20260903144302 | 28 | 349 | 6.4 | 6.4 | 0.00 | 0.00 | 0.00 | 75 | 1015.1 |
| 20260903143757 | 28 | 346 | 1.6 | 3.2 | 0.00 | 0.00 | 0.00 | 74 | 1015.0 |
| 20260903143253 | 27 | 338 | 4.8 | 6.4 | 0.00 | 0.00 | 0.00 | 76 | 1015.0 |
| 20260903142749 | 28 | 67 | 6.4 | 6.4 | 0.00 | 0.00 | 0.00 | 75 | 1014.8 |
| 20260903142245 | 28 | 8 | 3.2 | 4.8 | 0.00 | 0.00 | 0.00 | 75 | 1015.1 |
| 20260903141741 | 28 | 345 | 3.2 | 4.8 | 0.00 | 0.00 | 0.00 | 75 | 1015.0 |
| 20260903141236 | 28 | 357 | 3.2 | 4.8 | 0.00 | 0.00 | 0.00 | 74 | 1015.1 |
| 20260903140732 | 27 | 318 | 1.6 | 1.6 | 0.00 | 0.00 | 0.00 | 76 | 1014.9 |
| 20260903140231 | 27 | 340 | 3.2 | 4.8 | 0.00 | 0.00 | 0.00 | 77 | 1014.9 |
| 20260903135728 | 26 | 330 | 4.8 | 6.4 | 0.00 | 0.00 | 0.00 | 79 | 1015.0 |
| 20260903135223 | 26 | 350 | 6.4 | 6.4 | 0.00 | 0.00 | 0.00 | 80 | 1015.3 |
| 20260903134721 | 26 | 11 | 6.4 | 6.4 | 0.00 | 0.00 | 0.00 | 82 | 1015.4 |
| 20260903134217 | 26 | 313 | 6.4 | 6.4 | 0.00 | 0.00 | 0.00 | 81 | 1015.1 |
| 20260903133715 | 26 | 326 | 4.8 | 4.8 | 0.00 | 0.00 | 0.00 | 82 | 1014.9 |
| 20260903133212 | 26 | 338 | 16.1 | 20.9 | 0.00 | 0.00 | 0.00 | 84 | 1015.4 |
| 20260903132711 | 25 | 349 | 0.0 | 0.0 | 0.00 | 0.00 | 0.00 | 85 | 1014.8 |
| 20260903132206 | 25 | 326 | 9.7 | 14.5 | 0.00 | 0.00 | 0.00 | 84 | 1015.2 |
| 20260903131701 | 25 | 319 | 3.2 | 3.2 | 0.00 | 0.00 | 0.00 | 83 | 1014.5 |
| 20260903131155 | 26 | 277 | 3.2 | 3.2 | 0.00 | 0.00 | 0.00 | 83 | 1014.4 |
| 20260903130650 | 26 | 322 | 3.2 | 3.2 | 0.00 | 0.00 | 0.00 | 83 | 1014.3 |
| 20260903130149 | 26 | 267 | 3.2 | 4.8 | 0.00 | 0.00 | 0.00 | 82 | 1014.3 |
| 20260903125648 | 25 | 236 | 4.8 | 6.4 | 0.00 | 0.00 | 0.00 | 83 | 1014.2 |
| 20260903125144 | 25 | 319 | 3.2 | 3.2 | 0.00 | 0.00 | 0.00 | 83 | 1014.1 |
| 20260903124638 | 25 | 311 | 3.2 | 3.2 | 0.00 | 0.00 | 0.00 | 84 | 1014.4 |
| 20260903124137 | 25 | 241 | 4.8 | 4.8 | 0.00 | 0.00 | 0.00 | 84 | 1014.1 |
| 20260903123637 | 25 | 297 | 3.2 | 3.2 | 0.00 | 0.00 | 0.00 | 84 | 1014.1 |
| 20260903123136 | 25 | 309 | 1.6 | 3.2 | 0.00 | 0.00 | 0.00 | 84 | 1014.1 |
| 20260903122636 | 25 | 286 | 3.2 | 3.2 | 0.00 | 0.00 | 0.00 | 85 | 1014.2 |
| 20260903122130 | 25 | 306 | 3.2 | 3.2 | 0.00 | 0.00 | 0.00 | 85 | 1014.3 |
| 20260903121629 | 25 | 306 | 3.2 | 3.2 | 0.00 | 0.00 | 0.00 | 85 | 1014.1 |
| 20260903121125 | 25 | 317 | 3.2 | 3.2 | 0.00 | 0.00 | 0.00 | 85 | 1014.1 |
| 20260903120624 | 25 | 230 | 4.8 | 4.8 | 0.00 | 0.00 | 0.00 | 85 | 1014.0 |
| 20260903120119 | 25 | 343 | 1.6 | 1.6 | 0.00 | 0.00 | 0.00 | 85 | 1014.0 |
| 20260903115617 | 25 | 339 | 0.0 | 0.0 | 0.00 | 0.00 | 0.00 | 85 | 1014.0 |
| 20260903115113 | 25 | 346 | 0.0 | 1.6 | 0.00 | 0.00 | 0.00 | 85 | 1013.9 |
| 20260903114608 | 25 | 309 | 3.2 | 3.2 | 0.00 | 0.00 | 0.00 | 85 | 1014.0 |
| 20260903114103 | 25 | 330 | 0.0 | 0.0 | 0.00 | 0.00 | 0.00 | 86 | 1014.0 |
| 20260903113558 | 25 | 332 | 1.6 | 1.6 | 0.00 | 0.00 | 0.00 | 86 | 1013.9 |
| 20260903113054 | 25 | 299 | 3.2 | 4.8 | 0.00 | 0.00 | 0.00 | 86 | 1013.9 |
| 20260903112550 | 25 | 337 | 0.0 | 0.0 | 0.00 | 0.00 | 0.00 | 86 | 1013.7 |
| 20260903112050 | 25 | 311 | 3.2 | 3.2 | 0.00 | 0.00 | 0.00 | 86 | 1013.5 |
| 20260903111549 | 25 | 303 | 3.2 | 3.2 | 0.00 | 0.00 | 0.00 | 86 | 1013.7 |
| 20260903111040 | 25 | 345 | 0.0 | 0.0 | 0.00 | 0.00 | 0.00 | 87 | 1013.6 |
| 20260903110536 | 25 | 338 | 0.0 | 0.0 | 0.00 | 0.00 | 0.00 | 87 | 1013.5 |
| 20260903110036 | 25 | 341 | 1.6 | 1.6 | 0.00 | 0.00 | 0.00 | 86 | 1013.7 |
| 20260903105531 | 25 | 229 | 3.2 | 3.2 | 0.00 | 0.00 | 0.00 | 86 | 1013.5 |
| 20260903105025 | 25 | 331 | 1.6 | 3.2 | 0.00 | 0.00 | 0.00 | 86 | 1013.7 |
| 20260903104519 | 25 | 335 | 0.0 | 1.6 | 0.00 | 0.00 | 0.00 | 86 | 1013.7 |
| 20260903104015 | 25 | 313 | 1.6 | 3.2 | 0.00 | 0.00 | 0.00 | 86 | 1013.5 |
| 20260903103511 | 25 | 326 | 1.6 | 1.6 | 0.00 | 0.00 | 0.00 | 86 | 1013.6 |
| 20260903103007 | 25 | 311 | 1.6 | 1.6 | 0.00 | 0.00 | 0.00 | 86 | 1013.5 |
| 20260903102502 | 25 | 342 | 1.6 | 1.6 | 0.00 | 0.00 | 0.00 | 86 | 1013.7 |
| 20260903102000 | 25 | 304 | 1.6 | 1.6 | 0.00 | 0.00 | 0.00 | 87 | 1013.9 |
| 20260903101455 | 25 | 334 | 1.6 | 1.6 | 0.00 | 0.00 | 0.00 | 87 | 1013.6 |
| 20260903100951 | 25 | 347 | 0.0 | 0.0 | 0.00 | 0.00 | 0.00 | 87 | 1013.6 |
| 20260903100447 | 25 | 339 | 1.6 | 1.6 | 0.00 | 0.00 | 0.00 | 87 | 1013.7 |
| 20260903095944 | 25 | 341 | 1.6 | 1.6 | 0.00 | 0.00 | 0.00 | 87 | 1013.6 |
| 20260903095443 | 25 | 330 | 0.0 | 1.6 | 0.00 | 0.00 | 0.00 | 87 | 1013.7 |
| 20260903094939 | 25 | 341 | 0.0 | 0.0 | 0.00 | 0.00 | 0.00 | 87 | 1013.6 |
| 20260903094438 | 25 | 331 | 1.6 | 1.6 | 0.00 | 0.00 | 0.00 | 88 | 1013.7 |
| 20260903093935 | 25 | 316 | 0.0 | 1.6 | 0.00 | 0.00 | 0.00 | 88 | 1013.7 |
| 20260903093429 | 25 | 314 | 1.6 | 1.6 | 0.00 | 0.00 | 0.00 | 88 | 1013.6 |
| 20260903092925 | 25 | 336 | 0.0 | 0.0 | 0.00 | 0.00 | 0.00 | 88 | 1013.6 |
| 20260903092425 | 25 | 310 | 1.6 | 1.6 | 0.00 | 0.00 | 0.00 | 88 | 1013.5 |
| 20260903091924 | 25 | 333 | 1.6 | 1.6 | 0.00 | 0.00 | 0.00 | 87 | 1013.7 |
| 20260903091422 | 25 | 308 | 1.6 | 3.2 | 0.00 | 0.00 | 0.00 | 88 | 1013.6 |
| 20260903090918 | 25 | 341 | 0.0 | 0.0 | 0.00 | 0.00 | 0.00 | 88 | 1013.7 |
| 20260903090413 | 25 | 329 | 0.0 | 1.6 | 0.00 | 0.00 | 0.00 | 88 | 1013.6 |
| 20260903085912 | 25 | 329 | 0.0 | 1.6 | 0.00 | 0.00 | 0.00 | 88 | 1013.5 |
| 20260903085410 | 25 | 339 | 0.0 | 1.6 | 0.00 | 0.00 | 0.00 | 88 | 1013.7 |
| 20260903084910 | 25 | 318 | 0.0 | 1.6 | 0.00 | 0.00 | 0.00 | 88 | 1013.6 |
| 20260903084409 | 25 | 325 | 1.6 | 1.6 | 0.00 | 0.00 | 0.00 | 88 | 1013.7 |
| 20260903083904 | 25 | 340 | 0.0 | 1.6 | 0.00 | 0.00 | 0.00 | 88 | 1013.6 |
| 20260903083400 | 25 | 343 | 0.0 | 0.0 | 0.00 | 0.00 | 0.00 | 88 | 1013.6 |
| 20260903082859 | 25 | 341 | 1.6 | 1.6 | 0.00 | 0.00 | 0.00 | 88 | 1013.6 |
| 20260903082354 | 25 | 8 | 1.6 | 1.6 | 0.00 | 0.00 | 0.00 | 88 | 1013.6 |
| 20260903081849 | 25 | 345 | 0.0 | 0.0 | 0.00 | 0.00 | 0.00 | 88 | 1013.5 |
| 20260903081344 | 25 | 336 | 0.0 | 0.0 | 0.00 | 0.00 | 0.00 | 88 | 1013.4 |
| 20260903080841 | 25 | 325 | 0.0 | 1.6 | 0.00 | 0.00 | 0.00 | 88 | 1013.5 |
| 20260903080338 | 25 | 330 | 0.0 | 1.6 | 0.00 | 0.00 | 0.00 | 88 | 1013.5 |
| 20260903075837 | 25 | 309 | 1.6 | 3.2 | 0.00 | 0.00 | 0.00 | 88 | 1013.4 |
| 20260903075333 | 25 | 325 | 1.6 | 1.6 | 0.00 | 0.00 | 0.00 | 88 | 1013.4 |
| 20260903074827 | 25 | 344 | 0.0 | 0.0 | 0.00 | 0.00 | 0.00 | 89 | 1013.6 |
| 20260903074327 | 25 | 335 | 0.0 | 0.0 | 0.00 | 0.00 | 0.00 | 89 | 1013.5 |
| 20260903073822 | 25 | 340 | 0.0 | 1.6 | 0.00 | 0.00 | 0.00 | 89 | 1013.4 |
| 20260903073317 | 25 | 273 | 3.2 | 3.2 | 0.00 | 0.00 | 0.00 | 89 | 1013.5 |
| 20260903072813 | 25 | 20 | 0.0 | 1.6 | 0.00 | 0.00 | 0.00 | 89 | 1013.5 |
| 20260903072309 | 25 | 335 | 0.0 | 1.6 | 0.00 | 0.00 | 0.00 | 89 | 1013.5 |
| 20260903071807 | 25 | 345 | 0.0 | 0.0 | 0.00 | 0.00 | 0.00 | 90 | 1013.5 |
| 20260903071302 | 25 | 341 | 0.0 | 0.0 | 0.00 | 0.00 | 0.00 | 90 | 1013.6 |
| 20260903070801 | 25 | 337 | 0.0 | 0.0 | 0.00 | 0.00 | 0.00 | 90 | 1013.5 |
| 20260903070257 | 25 | 26 | 1.6 | 1.6 | 0.00 | 0.00 | 0.00 | 90 | 1013.7 |
| 20260903065747 | 25 | 345 | 1.6 | 1.6 | 0.00 | 0.00 | 0.00 | 90 | 1013.7 |
| 20260903065246 | 25 | 350 | 1.6 | 1.6 | 0.00 | 0.00 | 0.00 | 90 | 1013.6 |
| 20260903064745 | 25 | 355 | 0.0 | 0.0 | 0.00 | 0.00 | 0.00 | 91 | 1013.6 |
| 20260903064240 | 25 | 353 | 0.0 | 0.0 | 0.00 | 0.00 | 0.00 | 91 | 1013.6 |
| 20260903063736 | 25 | 345 | 0.0 | 0.0 | 0.00 | 0.00 | 0.00 | 91 | 1013.7 |
| 20260903063231 | 26 | 352 | 0.0 | 1.6 | 0.00 | 0.00 | 0.00 | 91 | 1013.9 |
| 20260903062727 | 26 | 352 | 0.0 | 0.0 | 0.00 | 0.00 | 0.00 | 91 | 1013.7 |
| 20260903062226 | 26 | 351 | 0.0 | 0.0 | 0.00 | 0.00 | 0.00 | 91 | 1013.9 |
| 20260903061723 | 26 | 350 | 0.0 | 0.0 | 0.00 | 0.00 | 0.00 | 91 | 1014.1 |
| 20260903061221 | 26 | 343 | 0.0 | 0.0 | 0.00 | 0.00 | 0.00 | 90 | 1014.0 |
| 20260903060717 | 26 | 352 | 0.0 | 0.0 | 0.00 | 0.00 | 0.00 | 89 | 1014.1 |
| 20260903060217 | 26 | 2 | 0.0 | 1.6 | 0.00 | 0.00 | 0.00 | 89 | 1013.9 |
| 20260903055715 | 26 | 335 | 0.0 | 1.6 | 0.00 | 0.00 | 0.00 | 88 | 1013.9 |
| 20260903055214 | 26 | 350 | 0.0 | 1.6 | 0.00 | 0.00 | 0.00 | 88 | 1013.7 |
| 20260903054708 | 26 | 348 | 0.0 | 0.0 | 0.00 | 0.00 | 0.00 | 88 | 1013.7 |
| 20260903054204 | 26 | 9 | 1.6 | 1.6 | 0.00 | 0.00 | 0.00 | 88 | 1013.9 |
| 20260903053700 | 26 | 337 | 1.6 | 1.6 | 0.00 | 0.00 | 0.00 | 88 | 1013.9 |
| 20260903053150 | 26 | 345 | 0.0 | 1.6 | 0.00 | 0.00 | 0.00 | 88 | 1013.9 |
| 20260903052646 | 26 | 348 | 0.0 | 0.0 | 0.00 | 0.00 | 0.00 | 88 | 1013.9 |
| 20260903052141 | 26 | 353 | 0.0 | 0.0 | 0.00 | 0.00 | 0.00 | 88 | 1013.9 |
| 20260903051636 | 26 | 349 | 1.6 | 1.6 | 0.00 | 0.00 | 0.00 | 88 | 1013.7 |
| 20260903051131 | 26 | 353 | 0.0 | 0.0 | 0.00 | 0.00 | 0.00 | 88 | 1013.9 |
| 20260903050626 | 27 | 6 | 1.6 | 1.6 | 0.00 | 0.00 | 0.00 | 88 | 1013.7 |
| 20260903050126 | 27 | 350 | 1.6 | 1.6 | 0.00 | 0.00 | 0.00 | 87 | 1013.9 |
| 20260903045625 | 27 | 355 | 0.0 | 1.6 | 0.00 | 0.00 | 0.00 | 87 | 1013.9 |
| 20260903045122 | 27 | 351 | 0.0 | 0.0 | 0.00 | 0.00 | 0.00 | 88 | 1014.0 |
| 20260903044617 | 27 | 350 | 0.0 | 0.0 | 0.00 | 0.00 | 0.00 | 88 | 1013.9 |
| 20260903044113 | 27 | 350 | 0.0 | 0.0 | 0.00 | 0.00 | 0.00 | 87 | 1014.0 |
| 20260903043609 | 27 | 0 | 1.6 | 1.6 | 0.00 | 0.00 | 0.00 | 87 | 1014.1 |
| 20260903043108 | 27 | 352 | 1.6 | 1.6 | 0.00 | 0.00 | 0.00 | 87 | 1014.1 |
| 20260903042603 | 27 | 353 | 0.0 | 0.0 | 0.00 | 0.00 | 0.00 | 87 | 1014.0 |
| 20260903042058 | 27 | 343 | 0.0 | 0.0 | 0.00 | 0.00 | 0.00 | 87 | 1013.9 |
| 20260903041555 | 27 | 355 | 1.6 | 1.6 | 0.00 | 0.00 | 0.00 | 87 | 1014.0 |
| 20260903041050 | 27 | 20 | 1.6 | 1.6 | 0.00 | 0.00 | 0.00 | 87 | 1014.0 |
| 20260903040549 | 27 | 348 | 4.8 | 4.8 | 0.00 | 0.00 | 0.00 | 85 | 1013.9 |
| 20260903040046 | 27 | 285 | 3.2 | 3.2 | 0.00 | 0.00 | 0.00 | 85 | 1013.9 |
| 20260903035541 | 27 | 310 | 1.6 | 3.2 | 0.00 | 0.00 | 0.00 | 84 | 1013.6 |
| 20260903035037 | 27 | 212 | 6.4 | 9.7 | 0.00 | 0.00 | 0.00 | 84 | 1013.9 |
| 20260903034537 | 27 | 304 | 3.2 | 3.2 | 0.00 | 0.00 | 0.00 | 84 | 1013.7 |
| 20260903034032 | 28 | 263 | 4.8 | 4.8 | 0.00 | 0.00 | 0.00 | 83 | 1013.9 |
| 20260903033527 | 28 | 254 | 4.8 | 4.8 | 0.00 | 0.00 | 0.00 | 82 | 1013.9 |
| 20260903033022 | 28 | 265 | 4.8 | 4.8 | 0.00 | 0.00 | 0.00 | 82 | 1013.6 |
| 20260903032517 | 28 | 314 | 1.6 | 1.6 | 0.00 | 0.00 | 0.00 | 81 | 1013.9 |
| 20260903032012 | 28 | 293 | 3.2 | 3.2 | 0.00 | 0.00 | 0.00 | 81 | 1013.6 |
| 20260903031507 | 28 | 333 | 3.2 | 3.2 | 0.00 | 0.00 | 0.00 | 80 | 1013.7 |
| 20260903031002 | 28 | 307 | 1.6 | 3.2 | 0.00 | 0.00 | 0.00 | 80 | 1013.7 |
| 20260903030457 | 28 | 296 | 1.6 | 3.2 | 0.00 | 0.00 | 0.00 | 80 | 1013.7 |
| 20260903025953 | 28 | 285 | 3.2 | 3.2 | 0.00 | 0.00 | 0.00 | 80 | 1013.9 |
| 20260903025443 | 28 | 216 | 3.2 | 4.8 | 0.00 | 0.00 | 0.00 | 79 | 1013.9 |
| 20260903024938 | 28 | 309 | 3.2 | 4.8 | 0.00 | 0.00 | 0.00 | 79 | 1013.9 |
| 20260903024431 | 28 | 310 | 0.0 | 1.6 | 0.00 | 0.00 | 0.00 | 79 | 1014.0 |
| 20260903023926 | 28 | 319 | 1.6 | 1.6 | 0.00 | 0.00 | 0.00 | 78 | 1013.9 |
| 20260903023423 | 28 | 312 | 3.2 | 3.2 | 0.00 | 0.00 | 0.00 | 78 | 1013.5 |
| 20260903022918 | 29 | 284 | 3.2 | 4.8 | 0.00 | 0.00 | 0.00 | 78 | 1013.6 |
| 20260903022416 | 29 | 322 | 1.6 | 1.6 | 0.00 | 0.00 | 0.00 | 77 | 1013.6 |
| 20260903021914 | 29 | 265 | 1.6 | 3.2 | 0.00 | 0.00 | 0.00 | 77 | 1013.3 |
| 20260903021411 | 29 | 265 | 3.2 | 4.8 | 0.00 | 0.00 | 0.00 | 77 | 1013.4 |
| 20260903020910 | 29 | 255 | 3.2 | 3.2 | 0.00 | 0.00 | 0.00 | 77 | 1013.3 |
| 20260903020407 | 29 | 311 | 3.2 | 3.2 | 0.00 | 0.00 | 0.00 | 77 | 1013.3 |
| 20260903015901 | 29 | 271 | 3.2 | 3.2 | 0.00 | 0.00 | 0.00 | 76 | 1013.0 |
| 20260903015356 | 29 | 294 | 3.2 | 3.2 | 0.00 | 0.00 | 0.00 | 76 | 1013.1 |
| 20260903014851 | 29 | 320 | 4.8 | 4.8 | 0.00 | 0.00 | 0.00 | 76 | 1013.0 |
| 20260903014345 | 29 | 254 | 3.2 | 4.8 | 0.00 | 0.00 | 0.00 | 76 | 1013.1 |
| 20260903013840 | 29 | 262 | 6.4 | 6.4 | 0.00 | 0.00 | 0.00 | 76 | 1012.9 |
| 20260903013339 | 29 | 268 | 4.8 | 4.8 | 0.00 | 0.00 | 0.00 | 76 | 1012.8 |
| 20260903012839 | 29 | 219 | 4.8 | 6.4 | 0.00 | 0.00 | 0.00 | 77 | 1012.6 |
| 20260903012333 | 29 | 236 | 6.4 | 9.7 | 0.00 | 0.00 | 0.00 | 78 | 1012.6 |
| 20260903011827 | 29 | 259 | 3.2 | 4.8 | 0.00 | 0.00 | 0.00 | 79 | 1012.7 |
| 20260903011327 | 30 | 170 | 3.2 | 4.8 | 0.00 | 0.00 | 0.00 | 79 | 1012.4 |
| 20260903010822 | 30 | 335 | 3.2 | 3.2 | 0.00 | 0.00 | 0.00 | 76 | 1012.7 |
| 20260903010318 | 30 | 301 | 3.2 | 3.2 | 0.00 | 0.00 | 0.00 | 77 | 1012.8 |
| 20260903005815 | 30 | 204 | 4.8 | 4.8 | 0.00 | 0.00 | 0.00 | 76 | 1012.7 |
| 20260903005310 | 30 | 14 | 3.2 | 3.2 | 0.00 | 0.00 | 0.00 | 75 | 1012.6 |
| 20260903004801 | 31 | 340 | 0.0 | 1.6 | 0.00 | 0.00 | 0.00 | 74 | 1012.7 |
| 20260903004256 | 31 | 310 | 3.2 | 3.2 | 0.00 | 0.00 | 0.00 | 72 | 1012.8 |
| 20260903003752 | 31 | 322 | 3.2 | 3.2 | 0.00 | 0.00 | 0.00 | 71 | 1013.1 |
| 20260903003252 | 31 | 302 | 3.2 | 3.2 | 0.00 | 0.00 | 0.00 | 71 | 1012.7 |
| 20260903002746 | 31 | 289 | 3.2 | 3.2 | 0.00 | 0.00 | 0.00 | 71 | 1012.9 |
| 20260903002241 | 31 | 278 | 4.8 | 4.8 | 0.00 | 0.00 | 0.00 | 70 | 1013.1 |
| 20260903001736 | 31 | 304 | 3.2 | 3.2 | 0.00 | 0.00 | 0.00 | 70 | 1012.9 |
| 20260903001231 | 31 | 288 | 3.2 | 3.2 | 0.00 | 0.00 | 0.00 | 69 | 1013.0 |
| 20260903000726 | 31 | 293 | 6.4 | 6.4 | 0.00 | 0.00 | 0.00 | 70 | 1012.7 |
| 20260903000226 | 31 | 323 | 3.2 | 3.2 | 0.00 | 0.00 | 0.00 | 69 | 1012.9 |
| 20260902235724 | 31 | 291 | 6.4 | 9.7 | 0.00 | 0.00 | 0.00 | 69 | 1013.0 |
| 20260902235220 | 31 | 265 | 6.4 | 9.7 | 0.00 | 0.00 | 0.00 | 70 | 1012.9 |
| 20260902234719 | 31 | 277 | 6.4 | 9.7 | 0.00 | 0.00 | 0.00 | 69 | 1013.1 |
| 20260902234218 | 32 | 285 | 4.8 | 6.4 | 0.00 | 0.00 | 0.00 | 68 | 1013.1 |
| 20260902233717 | 32 | 300 | 3.2 | 3.2 | 0.00 | 0.00 | 0.00 | 68 | 1013.0 |
| 20260902233212 | 32 | 248 | 8.0 | 11.3 | 0.00 | 0.00 | 0.00 | 67 | 1013.1 |
| 20260902232711 | 32 | 337 | 3.2 | 4.8 | 0.00 | 0.00 | 0.00 | 66 | 1013.0 |
| 20260902232210 | 32 | 232 | 8.0 | 11.3 | 0.00 | 0.00 | 0.00 | 65 | 1013.2 |
| 20260902231705 | 32 | 262 | 9.7 | 11.3 | 0.00 | 0.00 | 0.00 | 65 | 1013.0 |
| 20260902231159 | 32 | 233 | 6.4 | 6.4 | 0.00 | 0.00 | 0.00 | 65 | 1013.0 |
| 20260902230655 | 32 | 275 | 4.8 | 4.8 | 0.00 | 0.00 | 0.00 | 65 | 1013.1 |
| 20260902230153 | 33 | 230 | 8.0 | 11.3 | 0.00 | 0.00 | 0.00 | 64 | 1013.1 |
| 20260902225648 | 33 | 337 | 4.8 | 4.8 | 0.00 | 0.00 | 0.00 | 63 | 1013.0 |
| 20260902225143 | 33 | 229 | 6.4 | 6.4 | 0.00 | 0.00 | 0.00 | 62 | 1013.1 |
| 20260902224642 | 34 | 295 | 4.8 | 6.4 | 0.00 | 0.00 | 0.00 | 59 | 1012.9 |
| 20260902224138 | 33 | 266 | 4.8 | 4.8 | 0.00 | 0.00 | 0.00 | 59 | 1012.8 |
| 20260902223634 | 33 | 215 | 4.8 | 4.8 | 0.00 | 0.00 | 0.00 | 59 | 1012.9 |
| 20260902223132 | 33 | 260 | 6.4 | 6.4 | 0.00 | 0.00 | 0.00 | 58 | 1012.9 |
| 20260902222631 | 34 | 327 | 1.6 | 1.6 | 0.00 | 0.00 | 0.00 | 56 | 1012.9 |
| 20260902222130 | 34 | 260 | 4.8 | 6.4 | 0.00 | 0.00 | 0.00 | 55 | 1013.0 |
| 20260902221624 | 35 | 335 | 3.2 | 4.8 | 0.00 | 0.00 | 0.00 | 54 | 1013.1 |
| 20260902221120 | 36 | 315 | 4.8 | 4.8 | 0.00 | 0.00 | 0.00 | 51 | 1013.1 |
| 20260902220616 | 35 | 304 | 1.6 | 3.2 | 0.00 | 0.00 | 0.00 | 51 | 1013.1 |
| 20260902220110 | 35 | 256 | 3.2 | 4.8 | 0.00 | 0.00 | 0.00 | 53 | 1013.2 |
| 20260902215606 | 35 | 260 | 6.4 | 6.4 | 0.00 | 0.00 | 0.00 | 52 | 1013.2 |
| 20260902215101 | 35 | 325 | 3.2 | 3.2 | 0.00 | 0.00 | 0.00 | 53 | 1013.2 |
| 20260902214555 | 35 | 340 | 6.4 | 6.4 | 0.00 | 0.00 | 0.00 | 52 | 1013.5 |
| 20260902214054 | 34 | 338 | 3.2 | 4.8 | 0.00 | 0.00 | 0.00 | 53 | 1013.4 |
| 20260902213550 | 34 | 295 | 3.2 | 4.8 | 0.00 | 0.00 | 0.00 | 54 | 1013.4 |
| 20260902213049 | 35 | 309 | 6.4 | 6.4 | 0.00 | 0.00 | 0.00 | 53 | 1013.5 |
| 20260902212545 | 34 | 285 | 8.0 | 9.7 | 0.00 | 0.00 | 0.00 | 54 | 1013.5 |
| 20260902212041 | 34 | 323 | 6.4 | 6.4 | 0.00 | 0.00 | 0.00 | 55 | 1013.5 |
| 20260902211537 | 35 | 298 | 4.8 | 4.8 | 0.00 | 0.00 | 0.00 | 54 | 1013.9 |
| 20260902211032 | 35 | 336 | 9.7 | 11.3 | 0.00 | 0.00 | 0.00 | 55 | 1013.6 |
| 20260902210531 | 35 | 309 | 3.2 | 3.2 | 0.00 | 0.00 | 0.00 | 55 | 1013.7 |
| 20260902210026 | 35 | 333 | 3.2 | 4.8 | 0.00 | 0.00 | 0.00 | 54 | 1013.7 |
| 20260902205520 | 34 | 340 | 3.2 | 4.8 | 0.00 | 0.00 | 0.00 | 54 | 1014.0 |
| 20260902205016 | 35 | 318 | 6.4 | 6.4 | 0.00 | 0.00 | 0.00 | 53 | 1013.7 |
| 20260902204515 | 35 | 257 | 4.8 | 4.8 | 0.00 | 0.00 | 0.00 | 52 | 1013.7 |
| 20260902204011 | 35 | 274 | 3.2 | 4.8 | 0.00 | 0.00 | 0.00 | 52 | 1013.6 |
| 20260902203506 | 35 | 45 | 3.2 | 4.8 | 0.00 | 0.00 | 0.00 | 51 | 1013.5 |
| 20260902203005 | 35 | 254 | 9.7 | 11.3 | 0.00 | 0.00 | 0.00 | 52 | 1013.6 |
| 20260902202501 | 35 | 326 | 11.3 | 11.3 | 0.00 | 0.00 | 0.00 | 50 | 1013.7 |
| 20260902201957 | 35 | 341 | 9.7 | 12.9 | 0.00 | 0.00 | 0.00 | 50 | 1013.7 |
| 20260902201452 | 35 | 272 | 6.4 | 9.7 | 0.00 | 0.00 | 0.00 | 52 | 1013.7 |
| 20260902200951 | 35 | 345 | 4.8 | 6.4 | 0.00 | 0.00 | 0.00 | 51 | 1014.0 |
| 20260902200447 | 35 | 346 | 3.2 | 3.2 | 0.00 | 0.00 | 0.00 | 50 | 1014.0 |
| 20260902195942 | 35 | 335 | 6.4 | 11.3 | 0.00 | 0.00 | 0.00 | 50 | 1013.9 |
| 20260902195437 | 35 | 309 | 9.7 | 12.9 | 0.00 | 0.00 | 0.00 | 51 | 1014.1 |
| 20260902194932 | 35 | 259 | 9.7 | 11.3 | 0.00 | 0.00 | 0.00 | 50 | 1014.2 |
| 20260902194431 | 35 | 253 | 4.8 | 6.4 | 0.00 | 0.00 | 0.00 | 49 | 1014.2 |
| 20260902193926 | 35 | 315 | 6.4 | 6.4 | 0.00 | 0.00 | 0.00 | 50 | 1014.2 |
| 20260902193423 | 35 | 321 | 3.2 | 4.8 | 0.00 | 0.00 | 0.00 | 52 | 1014.0 |
| 20260902192921 | 34 | 290 | 8.0 | 12.9 | 0.00 | 0.00 | 0.00 | 52 | 1013.9 |
| 20260902192420 | 35 | 255 | 12.9 | 14.5 | 0.00 | 0.00 | 0.00 | 50 | 1013.9 |
| 20260902191919 | 34 | 238 | 8.0 | 11.3 | 0.00 | 0.00 | 0.00 | 50 | 1014.0 |
| 20260902191415 | 35 | 264 | 14.5 | 16.1 | 0.00 | 0.00 | 0.00 | 50 | 1014.0 |
| 20260902190910 | 34 | 265 | 14.5 | 20.9 | 0.00 | 0.00 | 0.00 | 51 | 1014.0 |
| 20260902190405 | 35 | 208 | 14.5 | 17.7 | 0.00 | 0.00 | 0.00 | 53 | 1014.0 |
| 20260902185901 | 35 | 329 | 6.4 | 9.7 | 0.00 | 0.00 | 0.00 | 53 | 1014.1 |
| 20260902185356 | 35 | 275 | 9.7 | 11.3 | 0.00 | 0.00 | 0.00 | 51 | 1014.1 |
| 20260902184851 | 35 | 277 | 8.0 | 9.7 | 0.00 | 0.00 | 0.00 | 52 | 1014.2 |
| 20260902184347 | 35 | 273 | 4.8 | 6.4 | 0.00 | 0.00 | 0.00 | 55 | 1014.1 |
| 20260902183842 | 35 | 253 | 8.0 | 9.7 | 0.00 | 0.00 | 0.00 | 52 | 1014.1 |
| 20260902183338 | 35 | 348 | 6.4 | 9.7 | 0.00 | 0.00 | 0.00 | 53 | 1014.1 |
| 20260902182828 | 33 | 255 | 11.3 | 14.5 | 0.00 | 0.00 | 0.00 | 54 | 1014.2 |
| 20260902182325 | 33 | 252 | 12.9 | 17.7 | 0.00 | 0.00 | 0.00 | 55 | 1014.2 |
| 20260902181821 | 33 | 249 | 4.8 | 9.7 | 0.00 | 0.00 | 0.00 | 56 | 1014.2 |
| 20260902181316 | 33 | 334 | 11.3 | 14.5 | 0.00 | 0.00 | 0.00 | 56 | 1014.3 |
| 20260902180810 | 33 | 247 | 9.7 | 12.9 | 0.00 | 0.00 | 0.00 | 57 | 1014.5 |
| 20260902180306 | 33 | 256 | 4.8 | 9.7 | 0.00 | 0.00 | 0.00 | 58 | 1014.5 |
| 20260902175801 | 33 | 286 | 6.4 | 6.4 | 0.00 | 0.00 | 0.00 | 58 | 1014.5 |
| 20260902175256 | 33 | 261 | 8.0 | 11.3 | 0.00 | 0.00 | 0.00 | 58 | 1014.7 |
| 20260902174757 | 33 | 241 | 8.0 | 11.3 | 0.00 | 0.00 | 0.00 | 59 | 1014.6 |
| 20260902174254 | 33 | 243 | 4.8 | 6.4 | 0.00 | 0.00 | 0.00 | 59 | 1014.7 |
| 20260902173749 | 32 | 276 | 3.2 | 4.8 | 0.00 | 0.00 | 0.00 | 60 | 1014.7 |
| 20260902173248 | 32 | 305 | 8.0 | 11.3 | 0.00 | 0.00 | 0.00 | 60 | 1015.1 |
| 20260902172743 | 32 | 283 | 8.0 | 9.7 | 0.00 | 0.00 | 0.00 | 60 | 1015.0 |
| 20260902172243 | 32 | 344 | 3.2 | 3.2 | 0.00 | 0.00 | 0.00 | 61 | 1015.1 |
| 20260902171738 | 32 | 318 | 3.2 | 3.2 | 0.00 | 0.00 | 0.00 | 60 | 1015.2 |
| 20260902171233 | 31 | 256 | 8.0 | 9.7 | 0.00 | 0.00 | 0.00 | 62 | 1015.2 |
| 20260902170730 | 32 | 275 | 6.4 | 9.7 | 0.00 | 0.00 | 0.00 | 61 | 1015.3 |
| 20260902170225 | 31 | 262 | 9.7 | 12.9 | 0.00 | 0.00 | 0.00 | 62 | 1015.0 |
| 20260902165721 | 32 | 257 | 9.7 | 12.9 | 0.00 | 0.00 | 0.00 | 63 | 1014.9 |
| 20260902165214 | 32 | 326 | 3.2 | 4.8 | 0.00 | 0.00 | 0.00 | 63 | 1015.2 |
| 20260902164709 | 31 | 220 | 6.4 | 6.4 | 0.00 | 0.00 | 0.00 | 62 | 1015.0 |
| 20260902164208 | 32 | 278 | 6.4 | 6.4 | 0.00 | 0.00 | 0.00 | 63 | 1015.2 |
| 20260902163704 | 32 | 227 | 3.2 | 6.4 | 0.00 | 0.00 | 0.00 | 59 | 1015.1 |
| 20260902163203 | 31 | 336 | 4.8 | 4.8 | 0.00 | 0.00 | 0.00 | 63 | 1015.0 |
| 20260902162701 | 31 | 266 | 4.8 | 4.8 | 0.00 | 0.00 | 0.00 | 63 | 1015.0 |
| 20260902162156 | 31 | 251 | 8.0 | 11.3 | 0.00 | 0.00 | 0.00 | 64 | 1014.9 |
| 20260902161651 | 30 | 13 | 3.2 | 4.8 | 0.00 | 0.00 | 0.00 | 64 | 1015.0 |
| 20260902161147 | 30 | 340 | 6.4 | 9.7 | 0.00 | 0.00 | 0.00 | 67 | 1014.9 |
| 20260902160644 | 30 | 237 | 6.4 | 9.7 | 0.00 | 0.00 | 0.00 | 65 | 1014.9 |